Bremerton, WA

5:54 AM PDT on June 24, 2017 (GMT -0700)
Bremerton National

Weather History for KPWT - February, 2014

Change the Weather History Date:

Friday, February 28, 2014

  Actual Average Record
Temperature  
Mean Temperature 47 °F -  
Max Temperature 55 °F 46 °F 55 °F (2014)
Min Temperature 39 °F 32 °F 24 °F (2002)
Degree Days  
Heating Degree Days 18    
Moisture  
Dew Point 39 °F    
Average Humidity 74    
Maximum Humidity 100    
Minimum Humidity 53    
Precipitation  
Precipitation 0.00 in - - ()
Sea Level Pressure  
Sea Level Pressure 29.62 in    
Wind  
Wind Speed 8 mph (NNE)    
Max Wind Speed 20 mph    
Max Gust Speed 24 mph    
Visibility 10 miles    
Events      
Averages and records for this station are not official NWS values.
T = Trace of Precipitation, MM = Missing Value Source: NWS Daily Summary

Daily Weather History Graph

Daily Weather History Graph

Search for Another Location

Airport or City:

Trip Planner

Search our weather history database for the weather conditions in past years. The results will help you decide how hot, cold, wet, or windy it might be!

Date:

Astronomy

Feb. 28, 2014 Rise Set
Actual Time 6:53 AM PST 5:54 PM PST
Civil Twilight 6:22 AM PST 6:25 PM PST
Nautical Twilight 5:46 AM PST 7:01 PM PST
Astronomical Twilight 5:11 AM PST 7:36 PM PST
Moon 6:11 AM PST (2/28) 5:39 PM PST (2/28)
Length of Visible Light 12h 03m
Length of Day
11h 01m
Waning Crescent, 0% of the Moon is Illuminated
Feb 28
Waning Crescent
Mar 1
New
Mar 8
First Quarter
Mar 16
Full
Mar 23
Last Quarter

Hourly Weather History & Observations

Time (PST) Temp. Windchill Dew Point Humidity Pressure Visibility Wind Dir Wind Speed Gust Speed Precip Events Conditions
12:15 AM 39.2 °F - 39.2 °F 100% 29.77 in 10.0 mi Calm Calm - N/A   Overcast
12:35 AM 42.8 °F - 42.8 °F 100% 29.77 in 10.0 mi Calm Calm - N/A   Overcast
12:55 AM 44.6 °F - 44.6 °F 100% 29.76 in 10.0 mi Calm Calm - N/A   Overcast
1:15 AM 46.4 °F 43.5 °F 46.4 °F 100% 29.76 in 10.0 mi ENE 5.8 mph - N/A   Overcast
1:35 AM 46.4 °F 43.5 °F 46.4 °F 100% 29.76 in 10.0 mi NE 5.8 mph - N/A   Mostly Cloudy
1:55 AM 44.6 °F - 44.6 °F 100% 29.75 in 10.0 mi Calm Calm - N/A   Scattered Clouds
2:15 AM 44.6 °F 42.2 °F 44.6 °F 100% 29.76 in 10.0 mi NE 4.6 mph - N/A   Overcast
2:35 AM 44.6 °F 41.4 °F 44.6 °F 100% 29.75 in 10.0 mi NNE 5.8 mph - N/A   Overcast
2:55 AM 44.6 °F 41.4 °F 44.6 °F 100% 29.73 in 10.0 mi NE 5.8 mph - N/A   Overcast
3:15 AM 42.8 °F 38.6 °F - N/A% 29.74 in 10.0 mi NNE 6.9 mph - N/A   Scattered Clouds
3:35 AM 44.6 °F 40.2 °F - N/A% 29.72 in 10.0 mi NE 8.1 mph - N/A   Clear
3:55 AM 44.6 °F 40.2 °F - N/A% 29.72 in 10.0 mi NE 8.1 mph - N/A   Clear
4:15 AM 44.6 °F - - N/A% 29.72 in 10.0 mi Calm Calm - N/A   Clear
4:35 AM 42.8 °F - - N/A% 29.71 in 10.0 mi Calm Calm - N/A   Clear
4:55 AM 41.0 °F 38.0 °F - N/A% 29.71 in 10.0 mi NNE 4.6 mph - N/A   Clear
5:15 AM 42.8 °F 40.1 °F - N/A% 29.70 in 10.0 mi NE 4.6 mph - N/A   Clear
5:35 AM 41.0 °F 39.0 °F - N/A% 29.70 in 10.0 mi NNE 3.5 mph - N/A   Clear
5:55 AM 39.2 °F 35.9 °F - N/A% 29.68 in 10.0 mi NNE 4.6 mph - N/A   Clear
6:15 AM 39.2 °F 37.0 °F - N/A% 29.69 in 10.0 mi NNE 3.5 mph - N/A   Clear
6:35 AM 39.2 °F 35.9 °F - N/A% 29.68 in 10.0 mi NNE 4.6 mph - N/A   Clear
6:55 AM 42.8 °F 39.3 °F - N/A% 29.69 in 10.0 mi NNE 5.8 mph - N/A   Clear
7:15 AM 42.8 °F 38.0 °F - N/A% 29.68 in 10.0 mi NNE 8.1 mph - N/A   Clear
7:35 AM 44.6 °F 40.2 °F - N/A% 29.68 in 10.0 mi NNE 8.1 mph - N/A   Clear
7:55 AM 44.6 °F 41.4 °F - N/A% 29.66 in 10.0 mi NE 5.8 mph - N/A   Clear
8:15 AM 44.6 °F 40.2 °F - N/A% 29.68 in 10.0 mi NNE 8.1 mph - N/A   Clear
8:35 AM 44.6 °F 41.4 °F - N/A% 29.67 in 10.0 mi NE 5.8 mph - N/A   Clear
8:55 AM 46.4 °F 42.4 °F - N/A% 29.67 in 10.0 mi NE 8.1 mph - N/A   Clear
9:15 AM 48.2 °F - - N/A% 29.67 in 10.0 mi NNE 11.5 mph - N/A   Clear
9:35 AM 48.2 °F - - N/A% 29.66 in 10.0 mi NNE 15.0 mph 19.6 mph N/A   Clear
9:55 AM 48.2 °F - - N/A% 29.66 in 10.0 mi NNE 11.5 mph 17.3 mph N/A   Clear
10:15 AM 51.8 °F - 51.8 °F 100% 29.66 in 10.0 mi NNE 16.1 mph 21.9 mph N/A   Clear
10:35 AM 51.8 °F - 51.8 °F 100% 29.64 in 10.0 mi NE 16.1 mph 20.7 mph N/A   Clear
10:55 AM 51.8 °F - 51.8 °F 100% 29.65 in 10.0 mi NNE 15.0 mph - N/A   Clear
11:15 AM 51.8 °F - 51.8 °F 100% 29.64 in 10.0 mi NNE 16.1 mph 19.6 mph N/A   Clear
11:35 AM 51.8 °F - 51.8 °F 100% 29.63 in 10.0 mi NNE 15.0 mph 21.9 mph N/A   Clear
11:55 AM 53.6 °F - 48.2 °F 82% 29.62 in 10.0 mi NNE 17.3 mph 21.9 mph N/A   Clear
12:15 PM 55.4 °F - 46.4 °F 72% 29.62 in 10.0 mi NNE 16.1 mph 20.7 mph N/A   Clear
12:35 PM 55.4 °F - 44.6 °F 67% 29.60 in 10.0 mi NNE 19.6 mph 23.0 mph N/A   Clear
12:55 PM 53.6 °F - 44.6 °F 72% 29.60 in 10.0 mi NNE 15.0 mph - N/A   Clear
1:15 PM 55.4 °F - 44.6 °F 67% 29.59 in 10.0 mi NNE 13.8 mph 23.0 mph N/A   Clear
1:35 PM 53.6 °F - 44.6 °F 72% 29.58 in 10.0 mi North 13.8 mph 24.2 mph N/A   Clear
1:55 PM 53.6 °F - 42.8 °F 67% 29.57 in 10.0 mi NNE 15.0 mph 21.9 mph N/A   Clear
2:15 PM 55.4 °F - 42.8 °F 63% 29.56 in 10.0 mi North 13.8 mph 24.2 mph N/A   Clear
2:35 PM 55.4 °F - 42.8 °F 63% 29.56 in 10.0 mi NNE 16.1 mph 23.0 mph N/A   Clear
2:55 PM 53.6 °F - 42.8 °F 67% 29.56 in 10.0 mi NNE 13.8 mph 19.6 mph N/A   Clear
3:15 PM 53.6 °F - 41.0 °F 62% 29.55 in 10.0 mi NNE 17.3 mph 23.0 mph N/A   Clear
3:35 PM 53.6 °F - 41.0 °F 62% 29.56 in 10.0 mi NNE 10.4 mph 21.9 mph N/A   Clear
3:55 PM 53.6 °F - 39.2 °F 58% 29.55 in 10.0 mi NNE 17.3 mph 21.9 mph N/A   Clear
4:15 PM 51.8 °F - 37.4 °F 58% 29.54 in 10.0 mi NNE 16.1 mph 23.0 mph N/A   Clear
4:35 PM 51.8 °F - 37.4 °F 58% 29.53 in 10.0 mi NNE 13.8 mph 21.9 mph N/A   Clear
4:55 PM 50.0 °F - 35.6 °F 58% 29.53 in 10.0 mi NNE 13.8 mph 21.9 mph N/A   Clear
5:15 PM 48.2 °F - 33.8 °F 58% 29.53 in 10.0 mi NNE 13.8 mph 19.6 mph N/A   Clear
5:35 PM 48.2 °F - 32.0 °F 54% 29.53 in 10.0 mi NNE 19.6 mph 24.2 mph N/A   Clear
5:55 PM 46.4 °F 39.2 °F 30.2 °F 53% 29.52 in 10.0 mi NNE 18.4 mph - N/A   Clear
6:15 PM 46.4 °F 39.8 °F 30.2 °F 53% 29.52 in 10.0 mi NNE 16.1 mph 23.0 mph N/A   Clear
6:35 PM 46.4 °F 40.1 °F 30.2 °F 53% 29.53 in 10.0 mi NE 15.0 mph - N/A   Clear
6:55 PM 44.6 °F 37.8 °F 30.2 °F 57% 29.53 in 10.0 mi NNE 15.0 mph 19.6 mph N/A   Clear
7:15 PM 44.6 °F 38.8 °F 30.2 °F 57% 29.53 in 10.0 mi NNE 11.5 mph 18.4 mph N/A   Clear
7:35 PM 44.6 °F 38.1 °F 32.0 °F 61% 29.52 in 10.0 mi NNE 13.8 mph - N/A   Clear
7:55 PM 44.6 °F 38.4 °F 33.8 °F 66% 29.53 in 10.0 mi NNE 12.7 mph 17.3 mph N/A   Clear
8:15 PM 44.6 °F 38.8 °F 33.8 °F 66% 29.53 in 10.0 mi NE 11.5 mph - N/A   Clear
8:35 PM 42.8 °F 37.0 °F 35.6 °F 76% 29.53 in 10.0 mi NNE 10.4 mph - N/A   Clear
8:55 PM 42.8 °F 36.2 °F 37.4 °F 81% 29.54 in 10.0 mi NNE 12.7 mph - N/A   Clear
9:15 PM 42.8 °F 37.0 °F 33.8 °F 70% 29.53 in 10.0 mi NNE 10.4 mph - N/A   Clear
9:35 PM 42.8 °F 35.8 °F 32.0 °F 66% 29.54 in 10.0 mi NNE 13.8 mph - N/A   Clear
9:55 PM 42.8 °F 35.8 °F 30.2 °F 61% 29.54 in 10.0 mi NNE 13.8 mph - N/A   Clear
10:15 PM 42.8 °F 37.5 °F 30.2 °F 61% 29.55 in 10.0 mi NE 9.2 mph - N/A   Clear
10:35 PM 42.8 °F 36.2 °F 30.2 °F 61% 29.55 in 10.0 mi NE 12.7 mph - N/A   Clear
10:55 PM 42.8 °F 36.2 °F 30.2 °F 61% 29.55 in 10.0 mi NE 12.7 mph - N/A   Clear
11:15 PM 42.8 °F 35.4 °F 30.2 °F 61% 29.55 in 10.0 mi NE 15.0 mph - N/A   Clear
11:35 PM 41.0 °F 34.7 °F 30.2 °F 65% 29.55 in 10.0 mi NNE 10.4 mph 18.4 mph N/A   Clear
11:55 PM 41.0 °F 33.9 °F 30.2 °F 65% 29.55 in 10.0 mi NNE 12.7 mph - N/A   Clear